TJS-17 AKM, 63629

Orbit data source: Space-Track

TJS-17 AKM, 63629 is space debris in GEO originally from a launch on Thu, 10 Apr 2025 UTC launched from the Xichang Space Center, China (XSC). Debris objects in space refer to the collection of defunct objects orbiting the Earth. Examples of debris include non-operational satellites, rocket bodies, and fragments generated from explosions, collisions, or faulty payload assembly.

Not visible in the next 10 days
Identifier
63629, 2025-073C
Orbit
GEO
Country
Flag of CNCN / PRC
Related business
Manufacturer
CAST
Mission
Spacecraft
Bus & Motor
Unknown
Mass
~500 kg wet, ~500 kg dry
Launch date (UTC)
2025-04-10 (1 year ago)
Launch vehicle
Unknown
Launch site
Xichang Space Center, China (XSC)
Object type
Payload
Rocket body
Debris
Shape & HBR
Box, 8.0 m
Radar Cross Section
1.500 m²

Expand to show TLE details & history
Last TLE update: 19 hours ago

TLE from 19 hours ago
0 TJS-17 AKM
1 63629U 25073C   26127.40323749 -.00000200  00000-0  00000+0 0  9995
2 63629   0.9818  82.9133 0009552  90.3232 186.7823  0.98863254  3823
Epoch: 2026-05-07T09:40Z
TLE epoch observation values (Epoch: 2026-05-07T09:40:39.719Z)
Latitude
-0.95635°
Longitude
-10.41433°
Altitude
36,226.094 km
Speed
3.057 km/s
True Right ascension
00h 00m 00s
True Declination
0° 57' 19"
Sunlit
Object was in daylight at epoch
Visualization orbit readout
Latitude
Unknown
Longitude
Unknown
Altitude
Unknown
Speed
Unknown
Apparent Right ascension
Unknown
Apparent Declination
Unknown
Sunlit
N/A
Visualization observer readout
Local Sidereal Time
12:54:00
Azimuth
Unknown
Elevation
Unknown
Doppler factor
Unknown
Orbital elements
Apogee altitude
36,227.857 km
Perigee altitude
36,146.54 km
Semi-major axis
42,565.335 km
Eccentricity
0.00096
Inclination
0.9818°
RAAN
82.9133°
Arg. of periapsis
90.3232°
True anomaly
186.76939°
Mean anomaly
186.7823°
Eccentric anomaly
186.77584°
Mean motion
0.24715 °/min
Orbital period
1,456.61 mins
BSTAR
0
Loading maneuver chart data...
Computing Atmospheric mass density...
Loading historical data...
Loading historical data...
Loading historical data...
Loading historical data...
Loading historical data...
Loading historical data...
Loading historical data...
Other satellites on launch #73 in the year 2025 (2025-04-10 UTC)

Documentation

Showing up to 5 results
|